Home > Weather > Hereford > Past weeks

Flag for USA Past Weather in Hereford, Texas, USA — Yesterday and Last 2 Weeks

Now
73 °F

Clear.


Feels Like: 77 °F
Forecast: 69 / 97 °F
Wind: 10 mph from South

Location: Clovis Municipal

Current Time: Jun 30, 2016 at 12:04:04 AM

Latest Report: Jun 29, 2016 at 11:35 PM


Visibility: 10 mi

Pressure: 30.15 "Hg (26.35 "Hg at 1167m altitude)

Humidity: 50%

Dew Point: 54 °F

Location of HerefordLocation

Past Weather in Hereford — Graph

°F

Hereford Temperature Yesterday

Maximum temperature yesterday: 90 °F (at 2:55 PM)
Minimum temperature yesterday: 61 °F (at 6:35 AM)
Average temperature yesterday: 78 °F

High & Low Weather Summary for the Past Weeks

 TemperatureHumidityPressure
High100 °F (Jun 22, 6:15 PM)94% (Jun 19, 6:55 AM)30.36 "Hg (Jun 19, 6:55 AM)
Low54 °F (Jun 18, 6:15 AM)10% (Jun 17, 5:35 PM)29.90 "Hg (Jun 15, 7:15 PM)
Average77 °F49%30.15 "Hg
* Reported Jun 14 11:35 PM — Jun 29 11:15 PM, Hereford, Weather by CustomWeather, © 2016

Note: Actual official high and low records may vary slightly from our data, if they occured in-between our weather recording intervals... More about our weather records

Advertising

Hereford Weather History for the Previous 24 Hours

Scroll right to see more
 ConditionsComfort  
Time TempWeatherWind HumidityBarometerVisibility
11:15 PM
Wed, Jun 29
75 °FClear.10 mph47%30.15 "Hg10 mi
10:35 PM75 °FClear.9 mph47%30.14 "Hg10 mi
10:15 PM79 °FClear.9 mph42%30.13 "Hg6 mi
9:55 PM79 °FSunny.10 mph42%30.13 "Hg7 mi
9:35 PM81 °FSunny.10 mph39%30.12 "Hg9 mi
9:15 PM82 °FSunny.10 mph37%30.10 "Hg9 mi
8:55 PM84 °FSunny.10 mph35%30.10 "Hg10 mi
8:35 PM84 °FSunny.10 mph35%30.10 "Hg10 mi
8:15 PM86 °FSunny.9 mph33%30.10 "Hg10 mi
7:55 PM88 °FSunny.14 mph31%30.10 "Hg10 mi
7:35 PM88 °FSunny.14 mph33%30.09 "Hg10 mi
7:15 PM90 °FSunny.13 mph29%30.09 "Hg10 mi
6:55 PM88 °FSunny.7 mph31%30.09 "Hg10 mi
6:35 PM90 °FSunny.6 mph31%30.09 "Hg10 mi
6:15 PM90 °FSunny.9 mph31%30.09 "Hg10 mi
5:55 PM90 °FSunny.7 mph31%30.10 "Hg10 mi
5:35 PM90 °FSunny.9 mph31%30.11 "Hg10 mi
5:15 PM90 °FSunny.5 mph33%30.12 "Hg10 mi
4:55 PM88 °FScattered clouds.6 mph35%30.13 "Hg10 mi
4:35 PM88 °FPartly sunny.9 mph33%30.13 "Hg10 mi
4:15 PM88 °FScattered clouds.3 mph33%30.13 "Hg10 mi
3:55 PM88 °FPartly sunny.5 mph33%30.14 "Hg10 mi
3:35 PM88 °FPassing clouds.6 mph33%30.15 "Hg10 mi
3:15 PM88 °FScattered clouds.6 mph33%30.15 "Hg10 mi
2:55 PM90 °FPassing clouds.8 mph31%30.16 "Hg10 mi
2:35 PM88 °FSunny.5 mph35%30.17 "Hg10 mi
2:15 PM88 °FScattered clouds.3 mph35%30.18 "Hg10 mi
1:55 PM88 °FScattered clouds.8 mph38%30.18 "Hg10 mi
1:35 PM88 °FSunny.10 mph38%30.19 "Hg10 mi
1:15 PM86 °FSunny.No wind40%30.20 "Hg10 mi
12:55 PM84 °FSunny.7 mph40%30.20 "Hg10 mi
12:35 PM84 °FScattered clouds.6 mph48%30.21 "Hg10 mi
12:15 PM84 °FScattered clouds.9 mph48%30.22 "Hg10 mi
11:55 AM82 °FSunny.7 mph42%30.23 "Hg10 mi
11:35 AM82 °FSunny.No wind45%30.23 "Hg10 mi
11:15 AM82 °FSunny.3 mph45%30.24 "Hg10 mi
10:55 AM81 °FSunny.7 mph48%30.24 "Hg10 mi
10:35 AM81 °FSunny.9 mph51%30.23 "Hg10 mi
10:15 AM79 °FSunny.8 mph54%30.23 "Hg10 mi
9:55 AM79 °FSunny.9 mph54%30.24 "Hg10 mi
9:35 AM75 °FSunny.9 mph61%30.24 "Hg10 mi
9:15 AM73 °FSunny.12 mph61%30.24 "Hg10 mi
8:55 AM72 °FSunny.9 mph65%30.24 "Hg10 mi
8:35 AM70 °FSunny.6 mph69%30.25 "Hg10 mi
8:15 AM66 °FSunny.5 mph78%30.24 "Hg10 mi
7:55 AM64 °FSunny.No wind78%30.24 "Hg10 mi
7:35 AM63 °FClear.5 mph83%30.24 "Hg10 mi
7:15 AM61 °FPassing clouds.No wind88%30.24 "Hg10 mi
6:55 AM61 °FPassing clouds.5 mph88%30.24 "Hg10 mi
6:35 AM61 °FClear.3 mph83%30.24 "Hg10 mi
6:15 AM63 °FClear.7 mph83%30.23 "Hg10 mi
5:55 AM63 °FClear.7 mph83%30.23 "Hg10 mi
5:35 AM63 °FClear.6 mph77%30.23 "Hg10 mi
5:15 AM63 °FClear.6 mph83%30.24 "Hg10 mi
4:35 AM64 °FClear.8 mph78%30.24 "Hg10 mi
4:15 AM64 °FClear.7 mph78%30.24 "Hg10 mi
3:35 AM66 °FClear.7 mph73%30.24 "Hg10 mi
2:55 AM68 °FClear.9 mph69%30.25 "Hg10 mi
2:35 AM68 °FClear.10 mph69%30.25 "Hg10 mi
2:15 AM70 °FClear.10 mph64%30.25 "Hg10 mi
1:55 AM70 °FClear.10 mph64%30.26 "Hg10 mi
1:35 AM70 °FClear.14 mph64%30.25 "Hg10 mi
1:15 AM70 °FClear.12 mph64%30.24 "Hg10 mi
12:55 AM70 °FClear.9 mph64%30.24 "Hg10 mi
12:35 AM68 °FClear.9 mph69%30.23 "Hg10 mi
12:15 AM68 °FClear.7 mph64%30.23 "Hg10 mi
Weather by CustomWeather, © 2016

See weather overviewHow to use our weather pages